Location: Kimberly
(42.5380°N, 114.3640°W)
Time: 09:44:31
(UTC-06:00)

Envisat - Visible Passes

Search period start: 17 August 2017 00:00
Search period end: 27 August 2017 00:00
Orbit: 764 x 766 km, 98.2° (Epoch: 17 August)

Date Brightness Start Highest point End Pass type
(mag) Time Alt. Az. Time Alt. Az. Time Alt. Az.
17 Aug 4.9 22:24:56 10° SSW 22:29:10 26° W 22:33:25 10° NW visible
18 Aug 3.6 21:47:17 10° S 21:52:16 58° W 21:57:17 10° NNW visible
19 Aug 3.0 21:10:34 10° SSE 21:15:34 65° ENE 21:20:36 10° N visible
19 Aug 5.6 22:52:08 10° SW 22:55:02 15° W 22:57:57 10° NW visible
20 Aug 4.6 22:13:27 10° SSW 22:18:00 33° W 22:22:34 10° NNW visible
21 Aug 3.2 21:36:06 10° S 21:41:10 74° WSW 21:46:15 10° NNW visible
22 Aug 3.2 20:59:37 10° SSE 21:04:31 51° ENE 21:09:26 10° N visible
22 Aug 5.4 22:40:14 10° SW 22:43:49 19° W 22:47:25 10° NW visible
23 Aug 4.1 22:02:04 10° SSW 22:06:50 42° W 22:11:39 10° NNW visible
24 Aug 3.0 21:24:59 10° SSE 21:30:03 89° E 21:35:10 10° NNW visible
24 Aug 5.9 23:08:46 10° W 23:09:45 10° W 23:10:44 10° WNW visible
25 Aug 3.5 20:48:46 10° SE 20:53:28 41° ENE 20:58:14 10° N visible
25 Aug 5.0 22:28:33 10° SSW 22:32:37 24° W 22:36:43 10° NW visible
26 Aug 3.7 21:50:46 10° S 21:55:42 53° W 22:00:41 10° NNW visible
